Reflectivity
-20 -20 -20 -20 -20 -18 12 14 6 8 12 12 12 13 11 -8 -19 0 9 0 11 11 12 13 14 5 -18 -20 -20 -20 -20 -20 -20 -20 -20 -20 -20 -20 -20 -20 -20 -20 -20 -20 -20 -20 -20
-20 -20 -20 -20 -20 4 14 13 14 0 9 11 11 -7 -20 -20 -20 -3 11 13 11 11 11 11 12 2 -20 -20 -20 -20 -20 -20 -20 -20 -20 -20 -20 -18 1 -20 -20 -20 -20 -20 -20 -20 -20
-20 -8 -20 -20 -20 13 13 14 11 9 -12 -19 8 -20 -20 -20 -20 12 11 11 10 -1 -10 6 10 -20 -20 -20 -20 -20 -20 -20 -20 -20 -20 -20 -20 -20 -20 -20 -20 -20 -20 -20 -20 -20 -20
-20 -20 -20 -20 -20 12 14 12 9 -19 -20 -1 -20 -20 -20 -20 10 11 9 -7 -20 -6 9 15 12 -20 -20 -20 -20 -20 -20 -20 -20 -20 -20 -20 -20 -20 -20 -20 -20 -20 -20 -20 -20 -20 -20
-20 -20 -20 -20 -20 10 12 10 -20 -20 -15 -20 -20 -20 -20 -20 -20 -20 -20 -20 0 5 14 12 -12 -20 -20 -20 -20 -20 -20 -20 -20 -20 -20 -20 -20 -20 -20 -20 -20 -20 -20 -20 -20 -20 -20
-20 -20 -20 -20 -20 6 8 -19 -20 -20 -20 -19 -20 -20 -20 -20 -20 -20 -20 -20 -18 -2 -13 -20 -20 -20 -20 -20 -20 -20 -20 -20 -20 -20 -20 -20 -20 -20 -20 -20 -20 -20 -16 -20 -20 -20 -20
-20 -20 -20 -20 -20 -18 2 -11 -20 -20 -20 -20 -20 -20 -20 -20 -20 -20 -0 -20 -20 -20 -20 -20 -20 -20 -20 -20 -20 -20 -20 -20 -20 -20 -20 -20 -20 -20 -20 -20 -20 -20 -20 -20 -20 -20 -20
-20 -20 -20 -20 -20 -7 -18 -20 -20 -20 -20 -20 -20 -20 -20 -20 -20 -20 -19 -20 -20 -20 -20 -20 -20 -20 -20 -20 -20 -20 -20 -20 -20 -20 -20 -20 -20 -20 -20 -20 -20 -20 -20 -20 -20 -20 -20
-20 -20 -20 -20 -20 -20 -20 -20 -20 -20 -20 -20 -20 -20 -20 -20 -20 -20 -20 -20 -20 -20 -20 -20 -20 -20 -20 -20 -20 -20 -20 -20 -20 -20 -20 -20 -20 -20 -20 -20 -20 -20 -20 -20 -20 -20 -20
-20 -20 -20 -20 -20 -20 -20 -20 -20 -20 -20 -20 -20 -20 -20 -20 -20 -20 -20 -20 -20 -20 -20 -20 -20 -20 -20 -20 -20 -20 -20 -20 -20 -20 -20 -20 -20 -20 -20 -20 -20 -20 -20 -20 -20 -20 -20
-20 -20 -20 -20 -20 -20 -20 -20 -20 -20 -20 -20 -20 -20 -20 -20 -20 -20 -20 -20 -20 -20 -20 -20 -20 -20 -20 -20 -20 -20 -20 -20 -20 -20 -20 -20 -20 -20 -20 -20 -20 -20 -20 -20 -20 -20 -20
-20 -20 -20 -20 -20 -20 -20 -20 -20 -20 -20 -20 -20 -20 -20 -20 -20 -20 -20 -20 -20 -20 -20 -20 -20 -20 -20 -20 -20 -20 -20 -20 -20 -20 -20 -20 -20 -20 -20 -20 -20 -20 -20 -20 -20 -20 -20
-20 -20 -20 -20 -20 -20 -20 -20 -20 -20 -20 -20 -20 -20 -20 -20 -20 -20 -20 -20 -19 -11 -20 -20 -20 -20 -20 -20 -20 -20 -20 -20 -20 -20 -20 -20 -20 -20 -20 -20 -20 -20 -20 -20 -20 -20 -20
-20 -20 -20 -20 -20 -20 -20 -20 -20 -20 -20 -20 -20 -20 -20 -20 -20 -20 -20 -20 -20 -20 -20 -20 -20 -20 -20 -20 -20 -20 -20 -20 -20 -20 -20 -20 -20 -20 -20 -20 -20 -20 -20 -20 -20 -20 -20
-20 -20 -20 -20 -20 -20 -20 -20 -20 -20 -20 -20 -20 -20 -20 -20 -20 -20 -20 -20 -20 -20 -20 -20 -20 -20 -20 -20 -20 -20 -20 -20 -20 -20 -20 -20 -20 -20 -20 -20 -20 -20 -20 -20 -20 -20 -20
-20 -20 -20 -20 -20 -20 -20 -18 -20 -20 -20 -20 -20 -20 -20 -20 -20 -20 -20 -20 -20 -20 -20 -20 -20 -20 -20 -20 -20 -20 -20 -20 -20 -20 -20 -20 -20 -20 -20 -20 -20 -20 -20 -20 -20 -20 -20
-20 -20 -20 -20 -20 -20 -20 -20 -20 -20 -20 -20 -20 -20 -20 -20 -20 -20 -20 -20 -20 -20 -20 -20 -20 -20 -20 -20 -20 -20 -20 -20 -20 -20 -20 -20 -20 -20 -20 -20 -20 -20 -20 -20 -20 -20 -20
-20 -20 -20 -20 -20 -20 -20 -20 -20 -20 -20 -20 -20 -20 -20 -20 -20 -20 -20 -20 -20 -20 -20 -20 -20 -20 -20 -20 -20 -20 -20 -20 -20 -20 -20 -20 -20 -20 -20 -20 -20 -20 -20 -20 -20 -20 -20
-20 -20 -20 -20 -20 -4 -20 -20 -20 -20 -20 -20 -20 -20 -20 -20 -20 -20 -20 -20 -20 -20 -20 -20 -20 -20 -20 -20 -20 -20 -20 -20 -20 -20 -20 -20 -20 -20 -20 -20 -20 -20 -20 -20 -20 -20 -20
-20 -20 -20 -20 6 -20 -20 -20 -20 -20 -20 -20 -20 -20 -20 -20 -20 -20 -20 -20 -20 -20 -20 -20 -20 -20 -20 -20 -20 -20 -20 -20 -20 -20 -20 -20 -20 -20 -20 -20 -20 -20 -20 -20 -20 -20 -20
-20 -20 -20 -20 10 8 -20 -20 -20 -20 -20 -20 -20 -20 -20 -20 -20 -20 -11 -20 -20 -20 -20 -20 -20 -20 -20 -20 -20 -20 -20 -20 -20 -20 -20 -20 -20 -20 -20 -20 -20 -20 -20 -20 -20 -20 -20
-20 -20 -20 -20 10 -4 -20 -20 -20 -20 -2 -20 -5 -14 -20 -20 -20 -20 -20 -20 -20 -20 -20 -20 -20 -20 -20 -20 -20 -20 -20 -20 -20 -20 -20 -20 -20 -20 -20 -20 -20 -20 -20 -20 -20 -20 -20
-20 -20 -20 -20 -6 -20 -20 -20 -20 -20 -20 -20 9 -16 -20 -20 -20 -20 -20 -20 -20 -20 -20 -20 -20 -20 -20 -20 -20 -20 -20 -20 -20 -20 -20 -20 -20 -20 -20 -20 -20 -20 -20 -20 -20 -20 -20
-20 -20 -20 -20 -20 -20 -20 -20 -20 -20 -20 -20 -20 -20 -20 -20 -20 -20 -20 -20 -20 -20 -20 -20 -20 -20 -20 -20 -20 -20 -20 -20 -20 -20 -20 -20 -20 -20 -20 -20 -20 -20 -20 -20 -20 -20 -20
-20 -20 -20 -20 -20 -20 -20 -20 -20 -20 -20 -20 -20 -20 -20 -18 -20 -20 -20 -20 -20 -20 -20 -20 -20 -20 -20 -20 -20 -20 -20 -20 -20 -20 -20 -20 -20 -20 -20 -20 -20 -20 -20 -20 -20 -20 -20
-20 -20 -20 -20 -20 -20 -20 -20 -20 -20 -20 -20 -20 -20 -20 -20 -20 -20 -20 -20 -20 -20 -20 -20 -20 -20 -20 -20 -20 -20 -20 -20 -20 -20 -20 -20 -20 -20 -20 -20 -20 -20 -20 -20 -20 -20 -20
-20 -20 -20 -20 -20 -20 -20 -20 -20 -20 -20 -20 -20 -20 -20 -20 -20 -20 -20 -20 -20 -20 -20 -20 -20 -20 -20 -20 -16 -20 -20 -20 -20 -20 -20 -20 -20 -20 -20 -20 -20 -20 -20 -20 -20 -20 -20
-20 -20 -20 -20 -20 -20 -20 -20 -20 -20 -20 -20 -20 -20 -20 -20 -20 -20 -20 -20 -20 -20 -20 -20 -20 -20 -20 -20 -20 -19 -20 -20 -20 -20 -20 -20 -20 -20 -20 -20 -20 -20 -20 -20 -20 -20 -20
-20 -20 -20 -20 -20 -20 -20 -20 -20 -20 -20 -20 -20 -20 -20 -20 -20 -20 -20 -20 -20 -20 -20 -20 -20 -20 -20 -20 3 -19 -20 -0 -20 -20 -20 -20 -20 -20 -20 -20 -20 -20 -20 -20 -20 -20 -20
Wind_Speed
10 11 12 11 10 12 14 14 13 14 14 13 12 11 12 12 12 12 12 12 12 12 12 10 8 8 3 2 9 8 11 9 6 5 8 8 8 5 7 5 3 8 7 7 6 7 7
9 12 12 10 10 12 13 14 14 13 13 12 11 11 10 10 10 12 12 11 11 11 10 8 7 7 2 5 7 3 6 9 8 7 7 11 7 11 6 6 6 6 9 8 5 4 3
10 12 11 10 11 12 13 13 12 12 11 10 11 9 9 8 9 11 11 10 10 10 10 7 6 4 4 12 6 7 6 5 5 3 5 3 6 9 4 5 3 10 6 7 5 8 5
11 11 11 8 11 11 12 13 11 10 10 11 9 8 8 8 9 10 10 10 10 10 9 6 5 4 6 6 4 9 6 8 5 6 7 8 8 6 3 3 5 3 5 5 6 9 6
11 10 10 8 10 11 11 11 9 9 10 10 9 7 8 7 8 9 9 8 9 9 7 4 3 2 7 1 2 2 4 6 4 4 3 6 4 1 4 4 3 2 5 6 6 10 5
10 10 8 8 8 9 10 9 9 8 9 8 8 7 7 7 6 5 5 6 4 6 5 6 7 3 7 4 3 2 4 4 3 3 3 2 2 3 6 5 3 5 4 6 8 3 3
10 9 8 8 6 8 10 9 9 7 8 7 7 7 6 5 5 4 2 1 2 1 4 9 9 5 4 3 3 5 2 4 4 3 4 6 7 3 3 3 4 5 5 10 4 5 2
9 7 8 7 4 7 9 9 7 7 8 7 7 6 4 5 6 5 1 3 2 5 4 14 4 3 1 2 5 4 2 2 3 6 6 6 6 3 5 5 6 5 7 6 4 3 4
9 7 7 6 4 5 8 9 7 7 7 6 6 5 7 8 10 5 5 7 5 7 3 3 2 4 3 4 4 4 5 5 7 5 7 8 1 4 3 9 9 10 6 5 4 7 5
10 7 6 4 6 5 7 8 7 7 7 6 6 5 9 12 3 4 4 5 5 3 5 5 4 2 2 5 3 2 3 3 3 5 9 7 1 4 8 8 7 5 6 5 6 5 3
10 7 6 3 5 6 7 7 6 6 7 7 7 7 12 8 5 2 3 6 3 6 5 5 4 2 3 1 7 2 1 5 4 4 8 3 8 9 9 4 5 3 0 3 3 4 3
10 8 7 2 3 6 8 8 7 6 7 8 6 5 12 1 2 5 6 7 6 7 1 2 5 4 4 4 3 3 1 2 2 10 8 4 5 5 5 4 2 5 4 5 3 2 3
10 9 6 2 2 5 8 8 8 7 7 8 6 7 7 3 2 5 5 5 7 5 5 4 4 6 6 3 5 5 4 6 4 3 3 6 5 3 4 4 2 6 7 4 4 5 4
11 9 6 2 2 5 7 7 7 6 5 7 4 5 8 0 4 5 4 6 1 6 3 6 5 7 6 4 3 3 7 5 9 6 2 6 4 6 8 5 2 5 5 6 2 1 5
12 9 6 2 3 5 7 8 7 5 4 4 1 3 1 2 3 4 6 3 5 3 7 6 5 5 4 1 1 6 7 4 6 7 5 4 3 3 5 3 4 6 6 2 6 1 4
11 10 6 3 2 5 7 8 7 4 2 3 2 2 2 3 3 5 5 5 2 4 4 6 7 6 7 7 5 5 4 5 2 6 4 5 5 3 3 1 5 6 2 6 5 2 3
11 10 6 4 2 6 7 8 7 4 4 7 2 3 4 3 5 5 3 6 4 7 8 2 3 2 3 7 5 4 4 5 8 4 7 5 4 3 2 5 4 5 3 4 3 5 4
11 10 7 4 3 6 7 9 8 3 6 4 2 1 4 3 4 3 3 3 1 3 3 4 5 6 4 5 6 7 5 5 8 6 3 3 5 4 3 2 2 1 4 5 6 3 1
11 9 7 4 4 5 7 8 7 4 3 3 3 3 2 5 4 3 6 2 3 6 3 1 5 6 5 4 6 10 5 5 8 5 1 3 2 4 5 5 5 2 4 5 6 4 3
11 9 7 5 4 5 7 8 7 5 1 2 2 3 3 1 2 5 4 3 3 6 3 5 5 3 5 4 5 5 5 3 5 3 2 3 3 6 6 3 1 2 4 2 7 4 5
11 9 8 5 3 5 7 8 8 7 1 3 2 4 8 4 5 5 5 8 6 2 1 3 1 4 5 4 5 6 5 4 2 1 2 4 4 4 5 5 4 3 4 5 5 6 7
11 9 8 6 3 4 7 7 8 6 1 2 2 3 2 4 5 3 4 6 9 8 6 4 4 5 8 5 1 6 8 5 4 5 3 4 1 2 2 6 8 4 7 7 7 7 6
10 8 7 5 3 5 6 8 9 9 1 2 3 2 6 5 3 4 4 2 1 8 3 4 6 12 15 7 9 7 8 6 6 4 3 3 4 3 3 4 5 5 4 3 1 1 1
11 9 7 6 5 6 6 8 10 9 6 2 1 3 6 3 2 5 6 4 7 6 6 8 9 9 3 6 7 10 12 12 9 7 5 4 4 3 3 4 2 5 4 1 5 5 7
11 9 7 6 6 5 7 9 11 11 10 2 3 4 5 1 2 3 4 4 9 14 9 12 8 7 9 6 6 5 6 8 5 6 5 5 5 4 3 1 6 7 2 4 4 4 7
11 9 8 6 5 6 7 9 10 12 14 3 2 1 5 7 5 5 3 9 7 5 5 4 6 5 7 5 5 5 5 6 4 3 8 7 6 6 2 5 7 7 4 6 3 4 3
10 9 8 7 6 6 7 9 10 12 13 3 1 2 3 4 4 6 3 6 7 6 5 4 1 4 7 3 3 3 3 2 5 7 4 3 3 5 3 3 8 9 4 5 5 8 3
11 9 8 7 7 7 7 8 10 11 12 5 1 2 3 3 3 7 8 4 4 5 6 5 6 5 4 4 4 4 3 5 3 7 8 8 7 5 3 2 9 7 4 8 7 4 7
10 9 8 7 6 6 7 8 9 11 12 5 3 2 2 5 3 1 3 3 4 2 7 4 8 5 5 5 1 3 1 0 2 3 4 2 9 8 10 9 8 6 8 5 6 5 5
Wind_Direction
261 273 282 286 294 290 299 302 301 300 297 291 281 273 265 262 259 258 257 261 269 275 280 293 310 322 301 225 249 231 184 184 151 180 223 231 262 205 257 228 161 102 95 74 71 59 76
253 276 279 290 294 296 304 304 305 303 297 289 280 267 252 252 249 254 256 260 266 270 276 286 309 315 229 256 250 230 289 142 213 211 242 231 243 221 261 160 129 128 107 124 162 88 52
251 270 281 289 290 303 304 306 307 302 296 295 283 264 252 243 252 251 254 257 260 265 270 289 301 280 263 247 344 323 319 282 315 314 336 354 1 44 345 54 39 122 120 155 168 163 170
247 264 279 292 291 303 306 307 308 303 306 297 282 262 248 233 245 246 248 252 260 269 284 297 286 261 258 276 332 334 322 335 287 331 9 353 357 354 33 106 34 180 116 139 233 173 194
249 266 277 289 291 304 310 308 309 309 309 300 291 263 238 225 225 233 243 259 269 274 275 273 232 213 267 160 283 301 345 313 319 332 341 313 1 282 18 102 4 290 231 173 193 176 147
241 260 275 282 293 307 312 310 310 316 304 300 285 254 231 216 217 219 233 258 330 292 228 218 254 345 280 233 101 8 294 294 294 238 286 250 328 34 25 74 205 252 255 182 131 176 116
228 257 267 278 302 313 306 323 317 312 305 304 300 255 213 197 199 192 193 230 21 348 229 193 199 218 141 107 126 229 161 242 291 199 234 257 76 126 100 16 319 359 28 111 101 84 70
225 242 262 277 306 305 304 317 321 323 306 309 281 259 194 172 162 143 279 249 278 229 243 240 152 140 360 225 124 104 79 247 210 258 272 37 76 1 299 59 10 334 39 35 90 90 101
221 232 254 276 299 292 307 314 329 319 292 272 259 239 181 142 124 141 209 240 359 16 136 29 7 66 317 22 40 33 32 318 234 257 87 98 120 275 21 49 22 51 67 19 20 338 336
216 219 240 267 292 312 308 312 337 314 288 271 243 198 145 127 94 210 211 250 34 30 95 175 228 150 258 130 72 297 298 222 328 85 109 91 248 337 70 54 33 66 15 360 331 18 256
205 208 226 239 290 315 315 323 333 312 282 256 225 163 163 168 311 337 311 341 336 57 72 187 66 161 144 277 163 338 317 330 322 48 75 48 51 34 55 38 19 147 324 274 309 305 360
195 197 211 205 294 319 323 329 346 318 281 257 232 181 144 198 238 276 354 320 53 47 195 120 143 188 157 178 64 149 173 319 334 80 69 95 87 46 356 305 235 275 280 250 240 156 36
188 199 191 171 333 329 330 335 352 308 280 261 225 168 176 279 233 331 337 48 36 113 159 146 163 135 128 68 166 153 111 48 27 100 132 92 76 139 360 323 35 19 31 4 4 22 215
183 190 170 145 30 333 338 346 345 300 274 249 183 150 236 222 352 9 38 50 321 145 189 131 149 116 113 113 345 118 109 51 8 14 196 128 11 5 344 65 356 317 80 126 68 60 282
181 170 155 128 35 349 350 354 341 295 269 248 153 239 277 274 1 47 66 64 218 317 114 128 151 120 92 96 41 91 77 90 19 359 78 94 92 69 48 337 35 352 45 192 109 341 49
175 159 153 125 31 24 355 354 345 317 250 151 151 137 228 201 83 57 71 239 190 359 92 129 177 194 166 164 182 113 79 360 78 2 30 15 101 343 141 320 1 111 209 44 0 86 318
170 151 161 119 40 47 343 2 1 11 136 144 40 77 256 161 70 51 171 233 94 39 25 28 297 93 131 145 181 117 70 45 16 22 62 13 86 265 37 35 34 11 23 36 85 112 146
161 152 159 123 71 51 349 6 5 33 141 117 166 74 256 76 79 201 225 243 31 77 315 20 32 65 108 69 54 73 93 61 356 340 67 13 128 71 115 85 351 346 83 92 108 317 47
150 162 150 126 75 41 5 6 358 36 101 146 159 144 303 83 143 282 278 63 100 161 228 65 38 48 40 82 85 105 87 27 14 46 91 351 32 59 10 3 322 44 109 113 110 97 187
149 169 146 113 64 34 10 358 1 35 98 89 66 93 353 43 238 207 191 134 72 22 49 57 94 59 78 70 69 118 107 77 58 55 339 57 81 143 173 175 147 359 335 141 131 114 211
152 168 141 126 73 34 8 0 1 19 119 99 241 206 169 209 285 247 159 163 139 109 356 92 139 179 140 137 125 103 100 145 125 122 330 78 97 36 352 337 329 327 311 312 286 228 154
154 161 145 123 85 31 18 1 9 7 123 95 262 70 62 183 205 258 159 186 159 189 137 224 167 180 109 74 45 161 144 166 170 218 164 28 194 75 323 35 16 314 297 285 279 290 301
149 152 143 137 119 46 24 8 12 6 356 179 264 279 103 306 188 92 226 146 179 113 23 267 106 89 76 84 72 47 79 69 82 122 91 79 118 76 252 359 354 3 246 272 356 11 98
145 150 151 136 94 56 32 14 12 16 16 166 280 71 79 282 96 186 157 203 132 112 111 31 90 96 130 89 49 24 29 35 60 30 109 116 85 88 213 19 39 231 332 16 109 52 9
146 148 146 121 93 57 36 23 9 8 7 94 11 80 111 207 216 297 187 133 85 74 65 65 22 117 135 54 65 52 356 19 343 35 49 108 108 79 114 210 297 325 69 88 97 307 57
146 146 131 115 91 63 41 31 17 10 3 79 64 254 103 116 265 264 136 141 131 102 38 38 13 11 73 77 79 142 191 194 169 121 30 44 87 108 88 134 209 228 122 84 61 267 75
144 132 124 111 88 64 45 34 23 15 8 40 48 25 87 102 347 31 134 145 117 102 107 103 83 25 62 76 97 149 245 192 163 167 191 43 351 142 170 210 284 251 163 120 104 233 132
139 130 122 107 89 68 50 36 22 16 10 27 224 24 97 98 338 15 359 77 92 95 130 203 56 334 49 84 130 217 153 237 125 175 173 164 151 195 192 191 272 221 121 151 202 148 152
135 131 125 110 87 65 48 35 22 13 6 360 64 315 40 86 194 38 106 49 47 155 134 144 173 157 168 101 168 132 117 44 126 230 175 181 184 180 177 211 226 208 188 176 143 133 152